DW1410 Weather Reports


Display with metric or nautical units.
time (UTC)temp
F
wind
direction
speed
MPH
gust
MPH
rain 1hr
in
rain 24hr
in
rain mn
in
humidity
%
barometer
mb
20260506044602 38 233 1.0 2.0 0.00 0.00 0.00 84 1009.9
20260506043100 37 233 0.0 2.0 0.00 0.00 0.00 86 1009.7
20260506041609 36 233 0.0 1.0 0.00 0.00 0.00 88 1009.6
20260506040101 34 233 0.0 1.0 0.00 0.00 0.00 90 1009.5
20260506040002 34 233 0.0 1.0 0.00 0.00 0.00 90 1009.5
20260506034601 32 233 0.0 0.0 0.00 0.00 0.00 94 1009.2
20260506033101 30 233 0.0 1.0 0.00 0.00 0.00 96 1009.1
20260506031600 28 233 0.0 1.0 0.00 0.00 0.00 95 1008.8
20260506030002 28 233 0.0 0.0 0.00 0.00 0.00 95 1008.7
20260506024605 28 233 0.0 0.0 0.00 0.00 0.00 95 1008.5
20260506023109 28 233 0.0 0.0 0.00 0.00 0.00 94 1008.5
20260506021622 27 233 0.0 1.0 0.00 0.00 0.00 94 1008.5
20260506020100 27 233 0.0 1.0 0.00 0.00 0.00 94 1008.4
20260506020003 27 233 0.0 1.0 0.00 0.00 0.00 94 1008.4
20260506014600 27 233 0.0 0.0 0.00 0.00 0.00 94 1008.4
20260506013110 27 233 0.0 0.0 0.00 0.00 0.00 93 1008.2
20260506011617 28 233 0.0 0.0 0.00 0.00 0.00 93 1008.1
20260506010003 28 233 0.0 0.0 0.00 0.00 0.00 92 1007.8
20260506004600 28 233 0.0 0.0 0.00 0.00 0.00 92 1007.7
20260506003100 28 233 0.0 0.0 0.00 0.00 0.00 91 1007.7
20260506001603 28 233 0.0 0.0 0.00 0.00 0.00 91 1007.6
20260506000002 29 233 0.0 0.0 0.00 0.00 0.00 91 1007.6
20260505234600 29 233 0.0 2.0 0.00 0.00 0.00 91 1007.4
20260505233106 29 281 0.0 2.0 0.00 0.00 0.00 91 1007.3
20260505231613 29 281 0.0 1.0 0.00 0.00 0.00 90 1007.3
20260505230100 29 281 0.0 0.0 0.00 0.00 0.00 90 1007.3
20260505230002 29 281 0.0 0.0 0.00 0.00 0.00 90 1007.3
20260505224604 29 281 0.0 0.0 0.00 0.00 0.00 89 1007.3
20260505223100 29 281 0.0 0.0 0.00 0.00 0.00 88 1007.2
20260505221604 30 281 0.0 0.0 0.00 0.00 0.00 87 1007.2
20260505220000 30 281 0.0 0.0 0.00 0.00 0.00 86 1007.1
20260505214600 30 281 0.0 0.0 0.00 0.00 0.00 86 1007.1
20260505213059 31 281 0.0 0.0 0.00 0.00 0.00 85 1007.0
20260505211559 31 281 0.0 1.0 0.00 0.00 0.00 84 1006.9
20260505210059 31 281 0.0 0.0 0.00 0.00 0.00 84 1007.0
20260505210004 31 281 0.0 0.0 0.00 0.00 0.00 83 1006.9
20260505204559 32 281 0.0 0.0 0.00 0.00 0.00 82 1006.7
20260505203121 33 281 0.0 0.0 0.00 0.00 0.00 80 1006.6
20260505201604 34 281 0.0 0.0 0.00 0.00 0.00 80 1006.6
20260505200059 34 281 0.0 0.0 0.00 0.00 0.00 78 1006.4
20260505200002 34 281 0.0 0.0 0.00 0.00 0.00 78 1006.4
20260505194559 35 281 0.0 0.0 0.00 0.03 0.00 77 1006.3
20260505193059 36 281 0.0 0.0 0.00 0.03 0.00 75 1006.2
20260505191611 37 281 0.0 0.0 0.00 0.03 0.00 73 1006.1
20260505190001 38 281 0.0 0.0 0.00 0.03 0.00 71 1006.0
20260505184559 40 281 0.0 1.0 0.00 0.03 0.00 68 1006.0
20260505183101 40 281 0.0 2.0 0.00 0.03 0.00 66 1005.7
20260505181559 41 275 0.0 4.0 0.00 0.03 0.00 65 1005.6
20260505180001 42 275 1.0 3.0 0.00 0.03 0.00 64 1005.4
20260505174605 43 259 2.0 8.0 0.00 0.03 0.00 62 1005.3
20260505173100 43 269 2.0 5.0 0.00 0.03 0.00 60 1005.2
20260505171559 44 253 1.0 6.0 0.00 0.03 0.00 61 1005.1
20260505170111 44 233 1.0 6.0 0.00 0.03 0.00 59 1005.0
20260505170001 44 248 0.0 6.0 0.00 0.03 0.00 59 1005.0
20260505164559 44 234 1.0 8.0 0.00 0.03 0.00 59 1005.0
20260505163102 44 306 2.0 8.0 0.00 0.03 0.00 57 1004.9
20260505161503 44 250 1.0 11.0 0.00 0.03 0.00 55 1004.8
20260505153003 46 255 2.0 7.0 0.00 0.03 0.00 54 1004.4
20260505151502 47 271 2.0 9.0 0.00 0.03 0.00 54 1004.5
20260505124503 49 199 3.0 10.0 0.00 0.03 0.00 53 1003.7
20260505123002 49 260 2.0 16.0 0.00 0.03 0.00 53 1003.6
20260505121507 46 246 4.0 10.0 0.00 0.03 0.00 56 1003.5
20260505120005 49 311 6.0 12.0 0.00 0.03 0.00 50 1003.4
20260505114504 50 280 2.0 12.0 0.00 0.03 0.00 51 1003.2
20260505113007 51 315 4.0 11.0 0.00 0.03 0.00 50 1003.0
20260505111503 51 290 3.0 12.0 0.00 0.03 0.00 51 1002.8
20260505101502 49 321 5.0 13.0 0.00 0.03 0.00 54 1002.1
20260505100005 48 279 4.0 11.0 0.00 0.03 0.00 58 1002.1
20260505094503 48 302 2.0 11.0 0.00 0.05 0.00 58 1002.0
20260505093003 47 284 3.0 9.0 0.00 0.05 0.00 64 1002.0
20260505091502 49 248 2.0 8.0 0.00 0.05 0.00 62 1001.8
20260505090006 47 236 2.0 10.0 0.00 0.05 0.00 68 1001.8
20260505084603 47 316 4.0 8.0 0.00 0.06 0.00 66 1001.4
20260505083002 46 278 4.0 11.0 0.00 0.06 0.00 69 1001.4
20260505081505 45 303 3.0 13.0 0.00 0.06 0.00 73 1001.1
20260505080004 44 333 3.0 9.0 0.00 0.06 0.00 76 1000.9
20260505074502 44 294 3.0 6.0 0.00 0.10 0.00 74 1000.7
20260505073003 44 256 4.0 9.0 0.00 0.10 0.00 77 1000.6
20260505071503 44 220 3.0 10.0 0.00 0.10 0.00 79 1000.3
20260505070006 45 232 1.0 10.0 0.00 0.10 0.00 79 1000.0
20260505064509 45 266 2.0 7.0 0.00 0.10 0.00 81 999.8
20260505063003 44 219 1.0 7.0 0.00 0.10 0.00 84 999.5
20260505061503 44 265 1.0 8.0 0.00 0.10 0.00 85 999.4
20260505060021 44 287 1.0 9.0 0.00 0.10 0.00 86 999.1
20260505054504 44 287 3.0 11.0 0.00 0.10 0.00 86 999.0